Location: Unspecified
(0.0000°N, 0.0000°E)
Time: 09:43:00
(UTC+01:00)

ARIANE 5 R/B - Visible Passes

Search period start: 19 January 2017 00:00
Search period end: 29 January 2017 00:00
Orbit: 587 x 35630 km, 6.9° (Epoch: 17 January)

Date Brightness Start Highest point End Pass type
(mag) Time Alt. Az. Time Alt. Az. Time Alt. Az.
19 Jan 6.5 09:41:17 10° WNW 17:50:44 65° ESE 19:37:51 10° E visible
20 Jan 4.4 06:45:10 10° WNW 06:48:44 46° NNE 06:58:31 10° E visible
20 Jan 12.4 19:04:15 10° W 19:48:30 13° W 20:48:53 10° W visible
21 Jan 7.7 15:02:39 10° W 16:49:12 59° WSW 00:39:45 48° W visible
22 Jan 7.5 11:57:42 10° W 17:10:21 82° S 21:51:05 46° E visible
24 Jan 4.1 06:05:26 24° NW 06:07:10 40° N 06:13:45 10° E visible
24 Jan 11.6 17:52:54 10° W 19:07:55 21° W 21:27:48 10° W visible
25 Jan 7.4 14:18:49 10° W 16:06:05 68° WSW 00:00:35 63° W visible
26 Jan 7.5 11:16:01 10° W 20:33:16 85° S 21:11:55 31° E visible
28 Jan 4.2 05:26:04 34° NNE 05:26:04 34° NNE 05:30:17 10° ENE visible
28 Jan 11.0 16:57:38 10° W 18:26:56 29° W 21:53:24 10° W visible
